SCP
0 0 0 0 0 0 0 0 0 0 0 0 0 1 1 1 1 1 1 1 1 1 1 1 1 1 1 1 1 1 1 1 1 1 1 1 1 1 1 1 1 1 0 0
0 0 0 0 0 0 0 0 0 0 0 0 0 1 1 1 1 1 1 1 1 1 1 1 1 1 1 1 1 1 1 1 1 1 1 1 1 1 1 1 1 1 1 0
0 0 0 0 0 0 0 0 0 0 0 0 0 0 1 1 1 1 1 1 1 1 1 1 1 1 1 1 1 1 1 1 1 1 1 1 1 1 1 1 1 1 1 1
0 0 0 0 0 0 0 0 0 0 0 0 0 0 1 1 1 1 1 1 1 1 2 2 2 1 1 1 1 1 1 1 2 2 2 1 1 1 1 1 1 1 1 1
0 0 0 0 0 0 0 0 0 0 0 0 0 0 0 1 1 1 1 1 1 1 2 2 2 2 1 1 1 1 2 2 2 2 2 1 1 1 1 1 1 1 1 1
0 0 0 0 0 0 0 0 0 0 0 0 0 0 0 0 0 1 1 1 1 1 2 2 2 2 2 1 1 1 2 3 3 2 2 2 1 1 1 1 2 2 1 1
0 0 0 0 0 0 0 0 0 0 0 0 0 0 0 0 0 0 1 1 2 2 2 2 2 2 2 2 2 2 3 3 3 3 3 2 2 2 2 2 2 2 2 1
0 0 0 0 0 0 0 0 0 0 0 0 0 0 0 0 0 0 1 1 2 2 2 2 2 2 3 2 2 2 3 4 4 4 4 3 3 2 2 2 2 2 2 2
0 0 0 0 0 0 0 0 0 0 0 0 0 0 0 1 1 1 1 2 2 3 3 3 3 3 3 3 3 3 3 4 4 4 4 4 3 3 2 2 2 2 2 2
0 0 0 0 0 0 0 0 0 0 0 0 0 0 1 2 2 1 1 2 2 3 3 4 4 3 3 3 3 3 3 4 4 4 4 4 4 3 3 3 2 2 2 2
0 0 0 0 0 0 0 0 0 0 0 0 0 1 2 3 3 2 2 2 2 3 3 4 5 4 3 3 3 3 3 3 3 3 4 5 4 4 3 3 3 3 3 3
0 0 0 0 0 0 0 0 0 0 0 0 0 0 1 2 2 2 2 2 3 3 3 5 6 5 3 3 3 3 3 3 3 3 4 4 4 4 4 4 4 4 4 5
0 0 0 0 0 0 0 0 0 0 0 0 0 0 1 1 1 1 1 2 2 3 3 5 7 8 8 6 5 4 4 4 3 3 4 4 5 5 5 6 6 6 6 6
0 0 0 0 0 0 0 0 0 0 0 0 0 0 0 1 1 1 1 2 2 3 4 5 7 10 12 11 8 6 6 6 6 6 6 7 7 7 8 9 9 10 9 9
0 0 0 0 0 0 0 0 0 0 0 0 0 0 1 1 1 2 2 2 2 3 3 4 5 8 10 10 9 8 9 10 10 10 11 11 11 11 11 12 12 11 10 10
0 0 0 0 0 0 0 0 0 0 0 0 0 1 1 2 2 2 2 2 3 3 3 4 5 6 7 8 8 9 10 11 12 14 16 16 15 15 14 14 12 10 8 8
0 0 0 0 0 0 0 0 0 0 1 1 1 1 2 2 3 2 3 3 4 4 3 4 5 6 7 7 7 7 8 9 11 13 16 17 16 16 15 13 10 8 6 6
0 0 0 0 0 0 0 0 0 1 1 1 1 2 2 3 3 3 3 4 4 4 4 4 5 5 6 6 6 6 6 7 9 11 13 15 15 14 13 10 8 7 7 7
0 0 0 0 0 0 0 0 0 1 1 1 2 2 3 3 3 3 3 4 5 5 5 6 6 6 5 5 5 6 6 6 7 9 12 15 15 13 10 7 6 7 8 8
0 0 0 0 0 0 0 1 1 1 1 1 2 2 2 2 3 3 3 4 4 4 5 7 7 6 6 5 6 7 7 7 7 9 12 14 13 11 9 7 6 7 9 10
0 0 0 0 0 0 1 1 1 1 1 1 2 2 2 2 3 3 3 3 3 3 4 6 7 6 5 5 6 7 8 7 7 8 9 9 8 7 7 8 7 7 9 10
0 0 0 0 1 1 1 1 1 1 2 2 2 2 2 2 2 2 2 2 2 2 3 5 5 5 5 5 5 6 7 7 7 6 6 5 4 5 6 8 10 9 9 8
1 1 1 1 1 1 1 2 2 2 2 2 2 2 2 2 2 2 2 2 2 2 3 5 6 6 6 6 5 5 5 6 6 5 4 3 4 4 6 8 10 10 9 8
1 1 1 1 1 1 1 1 1 2 2 2 2 2 2 2 2 2 2 2 2 3 3 5 6 7 8 8 7 5 4 5 5 5 4 4 5 5 7 10 11 11 10 9
1 1 1 1 1 1 1 1 1 1 1 1 1 1 2 2 2 2 2 2 2 2 3 4 4 5 7 7 7 6 5 5 5 6 5 5 6 7 9 12 13 11 9 7
1 1 1 1 1 1 1 1 1 1 1 1 1 1 1 2 2 2 2 2 2 2 2 2 3 4 5 6 6 5 5 5 6 6 6 6 7 9 11 13 12 9 6 5
Wind_Speed
6 7 5 3 3 4 4 4 2 1 1 3 2 1 4 7 8 9 10 11 11 11 11 12 11 11 11 11 10 10 9 9 7 6 6 5 5 5 5 4 4 5 5 4
8 7 3 3 3 4 5 6 3 1 1 3 2 2 3 6 9 8 10 10 11 11 11 12 12 12 12 12 11 11 10 10 9 6 5 4 4 4 4 3 3 5 4 4
9 2 2 5 5 6 6 5 3 2 2 5 5 5 5 6 7 8 9 9 10 11 12 13 14 13 13 13 13 11 11 10 10 8 6 5 4 4 4 5 4 4 4 4
7 4 5 7 6 7 5 3 4 5 7 4 5 5 4 5 6 8 9 9 10 11 12 13 14 14 14 14 13 12 12 11 10 10 8 8 6 6 5 4 3 4 4 5
6 5 7 8 5 6 3 2 4 6 7 7 6 8 2 4 4 5 7 9 10 11 12 13 14 14 14 13 13 12 12 12 11 11 10 9 8 6 5 5 4 4 4 5
4 4 5 4 4 4 4 5 6 8 8 8 4 8 3 1 2 2 3 6 9 10 11 11 12 12 12 12 12 12 13 13 12 12 11 10 9 8 7 6 5 6 5 5
8 8 6 5 6 7 8 9 7 8 7 5 2 7 2 2 2 3 2 3 6 9 10 10 11 12 12 12 13 12 13 13 13 13 12 12 11 10 10 8 7 6 5 5
9 9 8 6 7 7 9 10 7 7 6 3 5 5 0 1 1 2 1 1 3 6 9 10 10 10 11 12 12 12 13 13 13 13 12 11 11 10 8 9 8 7 6 5
6 5 6 5 5 7 7 8 8 9 8 7 4 3 3 2 1 0 1 1 2 4 6 8 9 9 10 11 12 12 12 11 12 12 12 11 11 10 9 8 8 7 6 5
5 5 6 5 6 4 6 6 6 8 7 8 6 7 3 1 1 2 2 1 1 3 4 5 7 7 8 9 11 11 11 11 10 11 11 10 11 10 9 9 9 8 7 6
7 7 7 8 8 7 6 7 7 7 7 9 7 2 4 2 2 2 2 2 1 2 3 4 5 6 7 7 8 9 9 10 9 9 9 9 10 10 10 9 9 9 8 8
7 7 7 8 4 4 7 8 8 8 7 8 8 3 5 3 2 2 2 2 1 1 2 3 3 5 6 6 6 7 8 8 8 8 8 9 9 9 10 10 10 9 9 9
5 7 9 10 9 8 7 7 8 9 8 9 10 3 5 2 2 2 1 2 2 1 1 2 2 3 4 5 5 6 6 7 7 7 8 8 9 10 10 9 9 9 9 8
6 9 10 9 5 5 8 8 9 11 10 10 10 8 2 2 2 2 2 1 2 2 1 1 2 2 2 3 4 4 5 5 5 6 7 8 8 8 9 9 9 9 9 9
6 9 9 9 7 7 9 10 10 12 12 12 9 8 5 2 2 2 1 1 1 1 1 1 1 1 2 3 3 3 3 3 4 5 6 7 7 7 7 8 8 8 9 9
5 7 8 9 9 9 10 10 11 12 11 11 10 8 3 1 1 1 1 1 0 1 1 1 1 1 1 2 3 3 3 3 3 4 4 4 5 6 7 7 8 8 8 8
6 7 9 10 8 10 13 10 10 10 8 9 10 6 1 1 1 1 1 1 0 1 2 1 1 1 0 1 2 3 3 3 4 3 3 3 3 4 5 6 6 7 7 7
6 8 8 9 8 14 4 0 4 7 6 5 4 2 2 2 1 1 1 1 2 2 2 1 1 1 1 1 2 2 3 3 4 3 3 3 3 3 3 4 5 6 6 6
7 8 8 9 12 12 5 3 4 7 6 3 3 2 1 0 2 2 2 3 3 3 3 2 2 2 1 1 1 2 3 3 3 4 4 3 3 3 3 4 5 4 4 5
6 8 10 10 12 12 3 2 2 6 7 2 2 2 2 3 5 1 4 4 4 4 3 3 2 2 2 2 2 2 3 3 3 4 3 3 3 4 4 4 5 4 4 5
8 9 11 12 12 8 2 1 4 9 1 2 1 1 2 2 4 3 3 3 4 4 4 4 3 3 2 2 2 3 3 3 3 3 3 3 3 4 4 4 4 4 5 5
8 8 9 9 12 6 4 2 3 3 4 1 1 1 1 2 2 1 2 3 4 4 4 4 4 3 3 2 3 3 4 3 3 3 4 4 4 5 4 4 5 5 5 5
6 5 5 5 3 5 2 2 3 3 3 2 2 2 2 3 3 3 3 3 4 4 4 4 4 4 3 3 4 5 4 4 4 4 4 4 5 5 4 5 5 5 5 6
4 3 5 5 3 1 1 2 3 3 4 4 3 3 4 4 4 4 4 4 4 4 5 4 4 4 4 4 4 4 4 4 5 5 5 4 5 5 4 4 5 5 5 5
3 4 6 7 5 4 3 2 4 4 4 4 5 5 6 6 6 6 5 5 5 5 5 5 5 5 5 5 5 5 5 4 6 6 6 6 5 5 4 5 4 5 4 3
6 7 8 6 4 5 4 5 6 6 6 6 6 7 7 7 7 7 6 6 6 6 6 6 7 7 7 6 5 5 5 5 6 6 6 5 5 4 5 5 3 1 2 0
Wind_Direction
198 225 222 226 256 300 284 274 273 60 72 244 239 221 162 173 190 188 186 188 191 193 189 188 191 191 189 188 189 192 192 185 191 195 200 199 198 203 206 212 209 223 236 229
205 217 233 246 238 245 250 253 241 158 132 254 258 250 184 183 199 198 192 193 195 193 189 189 193 194 193 191 193 193 194 192 196 193 203 209 213 214 214 221 206 226 230 235
232 204 190 220 223 231 236 260 275 268 213 218 246 224 188 185 197 201 203 201 199 197 193 189 192 194 195 195 196 196 197 197 199 195 197 197 201 220 210 213 214 224 230 236
233 220 219 228 227 248 241 256 264 249 247 227 251 264 186 187 195 203 204 205 205 199 197 193 192 196 198 198 195 196 195 198 196 196 204 204 209 216 216 221 212 215 226 234
203 210 223 232 233 251 277 267 248 250 255 259 238 268 202 183 215 218 206 206 207 200 199 197 196 197 199 197 195 193 194 197 196 199 202 209 218 221 219 218 212 229 222 232
221 207 233 242 231 233 209 214 219 236 246 247 258 270 258 203 290 281 214 205 206 201 198 198 197 195 199 197 196 194 192 197 198 201 205 210 217 223 226 224 219 220 219 221
204 204 198 212 212 198 220 234 232 224 225 235 213 259 286 11 345 321 296 211 203 197 196 194 193 192 196 198 198 197 196 198 199 202 206 208 214 217 220 226 223 232 232 222
212 204 194 202 231 234 230 247 256 267 263 227 192 246 346 49 358 323 299 201 191 192 190 192 192 195 197 198 198 199 199 201 201 202 205 209 211 217 219 220 233 225 235 234
227 207 175 196 230 250 227 241 269 271 270 270 247 246 194 179 198 335 34 124 153 180 186 187 188 193 198 199 198 199 198 202 204 205 205 208 211 220 224 217 223 230 229 228
235 230 184 182 208 217 272 262 246 256 262 263 244 242 248 221 344 29 31 78 128 167 180 183 186 187 192 197 196 198 198 203 207 207 208 206 209 213 219 225 223 231 231 231
234 231 197 194 220 224 207 222 246 262 274 275 270 261 55 42 3 344 11 59 105 162 173 172 176 182 182 184 189 192 194 199 204 207 208 212 210 209 213 219 224 224 229 227
222 242 231 214 193 259 243 247 240 249 248 257 274 278 81 47 12 352 9 48 77 132 149 161 165 169 172 175 180 185 190 195 203 205 205 210 212 212 214 215 218 218 221 225
207 237 229 208 190 194 216 222 239 254 253 255 260 243 105 63 30 34 45 60 80 106 126 145 151 161 169 175 179 180 188 194 198 201 208 213 215 214 216 218 216 215 217 222
239 242 252 257 255 216 218 223 232 245 251 255 257 272 257 339 351 25 46 47 69 76 77 111 137 152 159 168 175 185 190 189 194 202 211 216 221 221 220 220 219 219 218 219
238 240 246 262 269 254 245 243 237 243 260 269 270 269 284 315 342 6 7 20 38 50 50 42 134 142 156 168 176 182 185 182 191 202 216 222 225 225 224 223 222 221 220 220
237 250 244 245 244 245 248 248 242 244 255 260 264 263 310 29 41 0 326 334 11 35 23 24 34 103 149 180 183 175 177 177 184 203 219 224 228 225 221 220 219 219 220 222
221 232 243 244 233 242 239 238 242 244 247 256 262 279 313 263 344 320 314 304 9 21 3 358 357 337 223 210 195 180 179 177 183 197 217 221 225 221 219 220 217 220 221 220
231 236 242 246 231 243 247 333 257 250 244 263 279 292 299 319 14 1 340 352 10 4 352 338 323 315 268 205 183 195 187 187 191 201 219 222 223 226 227 224 221 223 224 224
233 230 242 243 241 243 217 205 236 240 236 244 249 247 275 319 217 160 47 358 339 336 334 332 321 312 311 280 204 193 210 205 210 217 224 227 229 233 229 223 223 225 228 229
198 222 240 240 251 253 238 113 251 245 229 180 231 228 232 242 256 64 35 347 340 336 341 336 330 325 317 294 265 230 229 231 237 240 240 238 239 240 235 230 226 226 229 231
202 213 232 242 248 252 35 98 209 236 296 78 200 234 246 282 336 8 342 331 336 337 329 323 315 309 308 292 273 260 255 254 260 254 248 246 242 242 243 241 240 233 232 231
243 235 231 243 247 243 68 172 241 359 26 11 302 285 293 326 336 322 313 320 325 324 320 317 311 305 299 284 271 267 274 281 273 260 252 250 247 249 242 236 239 236 232 230
250 284 280 273 296 50 59 26 17 347 331 327 313 312 287 285 293 301 301 305 310 315 316 315 310 304 296 279 267 265 272 274 267 258 253 253 251 248 246 237 236 236 229 235
211 266 261 254 239 253 298 317 326 327 318 316 306 295 286 287 291 293 295 298 301 303 302 304 304 301 297 294 285 270 266 264 263 258 255 248 244 241 234 235 236 239 241 242
273 245 245 247 254 256 244 286 314 315 308 301 291 286 288 290 286 285 284 285 289 292 293 293 292 289 288 285 284 280 276 270 266 265 259 255 249 245 243 243 254 252 256 265
243 252 258 268 274 276 284 294 298 295 293 295 294 292 291 288 286 284 283 283 285 287 290 288 287 287 287 284 279 278 273 266 263 263 262 258 253 243 241 239 244 262 261 203